Regional Weather Roundup
Issued by NWS

Home | Current Version | Previous Version | Text Only | Print | Product List | Glossary Off
Versions: 1 2 3 4 5 6 7 8 9 10 11 12 13 14 15 16 17 18 19 20 21 22 23 24 25 26 27 28 29 30 31 32 33 34 35 36 37 38 39 40 41 42 43 44 45 46 47 48 49 50

000
ASUS45 KSLC 281610
RWRUT

UTAH REGIONAL WEATHER ROUNDUP
NATIONAL WEATHER SERVICE SALT LAKE CITY UT
1000 AM MDT FRI AUG 28 2015

UTZ001>011-023>025-281700-

NORTHERN UTAH

CITY           SKY/WX    TMP DP  RH WIND       PRES   REMARKS
BRIGHAM CITY   SUNNY     69  49  48 CALM      30.22S
HILL AFB       MOSUNNY   70  46  41 E17       30.24R
LOGAN          SUNNY     67  51  56 VRB5      30.23F
OGDEN          SUNNY     76  46  34 NW5       30.22R
PROVO AIRPORT  SUNNY     73  48  40 SE5       30.25S
SALT LAKE CITY MOSUNNY   77  48  35 SE8       30.20S
VERNAL         SUNNY     69  44  40 S5        30.33R
WENDOVER       MOSUNNY   75  43  31 SE3       30.19F
HEBER CITY     SUNNY     61  45  55 CALM      30.34S
WEST JORDAN    SUNNY     75  46  35 SE12      30.24S

$$

UTZ012>022-026-027-281700-

SOUTHERN/CENTRAL UTAH

CITY           SKY/WX    TMP DP  RH WIND       PRES   REMARKS
BLANDING       SUNNY     79  44  28 CALM      30.35F
BRYCE CANYON   SUNNY     65  44  46 NE5       30.45R
CEDAR CITY     SUNNY     71  45  39 NE3       30.28S
DELTA          SUNNY     73  40  29 SE3       30.24S
HANKSVILLE     SUNNY     73  46  38 CALM      30.26S
MILFORD        SUNNY     70  48  45 S7        30.25S
MOAB/CYNLANDS  SUNNY     77  50  38 E12       30.24R
PRICE          SUNNY     71  42  35 CALM      30.33S
ST GEORGE      SUNNY     79  52  38 CALM      30.12S
KANAB          SUNNY     75  54  46 CALM      30.30R

$$

REGIONAL REPORTS     COLORADO/ARIZONA

CITY           SKY/WX    TMP DP  RH WIND       PRES   REMARKS
CRAIG, CO      SUNNY     63  49  60 E3        30.39S
GRAND JUNCTION SUNNY     68  53  58 SE9       30.30R
RIFLE          SUNNY     63  51  65 VRB3      30.37S
MONTROSE       SUNNY     65  51  60 CALM      30.37R
CORTEZ         SUNNY     71  50  47 VRB3      30.29S
PAGE, AZ       SUNNY     80  52  37 VRB3      30.20R
GRAND CANYON   SUNNY     76  46  34 NE3       30.35S
KINGMAN        SUNNY     88  54  31 CALM      30.11S
FLAGSTAFF      SUNNY     71  51  49 NE8       30.38S

$$

REGIONAL REPORTS    NEVADA/IDAHO/WYOMING

CITY           SKY/WX    TMP DP  RH WIND       PRES   REMARKS
LAS VEGAS, NV  MOSUNNY   91  51  25 N3        29.98R
ELY            SUNNY     68  45  43 S5        30.32F
ELKO           SUNNY     69  36  29 NE3       30.22F
POCATELLO, ID  SUNNY     73  46  38 NE10      30.21S
BURLEY         SUNNY     70  49  47 E6        30.14F
EVANSTON, WY   MOSUNNY   67  41  38 SW7       30.41R
ROCK SPRINGS   SUNNY     63  43  48 W7        30.39R
KEMMERER       SUNNY     66  41  39 CALM      30.42S

$$



USA.gov is the U.S. government's official web portal to all federal, state and local government web resources and services.